Regional Weather Roundup
Issued by NWS

Home | Current Version | Previous Version | Graphics & Text | Print | Product List | Glossary Off
Versions: 1 2 3 4 5 6 7 8 9 10 11 12 13 14 15 16 17 18 19 20 21 22 23 24 25 26 27 28 29 30 31 32 33 34 35 36 37 38 39 40 41 42 43 44 45 46 47 48 49 50

000
ASUS43 KMKX 191410
RWRWI

WISCONSIN REGIONAL WEATHER ROUNDUP
NATIONAL WEATHER SERVICE MILWAUKEE/SULLIVAN WI
900 AM CDT THU APR 19 2018

NOTE: "FAIR" INDICATES FEW OR NO CLOUDS BELOW 12,000 FEET WITH NO
SIGNIFICANT WEATHER AND/OR OBSTRUCTIONS TO VISIBILITY.

WIZ001-002-006>008-014>016-023>028-191500-
NORTHWEST WISCONSIN

CITY           SKY/WX    TMP DP  RH WIND       PRES   REMARKS
SUPERIOR ARPT  FAIR      35  19  54 CALM      30.42R
ASHLAND        FAIR      36  18  48 CALM      30.40R
HAYWARD        FAIR      32  18  56 CALM      30.40R
SIREN          FAIR      37  15  40 CALM      30.42R
CUMBERLAND     FAIR      32  16  51 NW3       30.40R
RICE LAKE      FAIR      33  15  46 NW5       30.42R WCI  29
CHETEK         FAIR      33  16  49 NW5       30.41R WCI  29
LADYSMITH      FAIR      32  18  55 NW7       30.39R WCI  26
EAU CLAIRE     FAIR      34  18  52 NW7       30.40R WCI  28
MENOMONIE      FAIR      36  17  46 W6        30.42R WCI  31
NEW RICHMOND   FAIR      31  15  51 CALM      30.42S
OSCEOLA        FAIR      30  16  57 CALM      30.46S
$$

WIZ003>005-009-010-017-018-191500-
NORTH CENTRAL WISCONSIN

CITY           SKY/WX    TMP DP  RH WIND       PRES   REMARKS
MANITOWISH WTR FAIR      35  19  52 N6        30.33R WCI  29
ARBOR VITAE    FAIR      35  22  59 N8        30.32R WCI  28
WOODRUFF       FAIR      35  22  59 N8        30.32R WCI  28
RHINELANDER    FAIR      36  20  52 N6        30.32R WCI  31
EAGLE RIVER    FAIR      33  19  56 N9        30.30R WCI  26
LAND O LAKES   FAIR      35  21  57 N9        30.33R WCI  27
PHILLIPS       FAIR      33  19  55 N7        30.33R WCI  27
TOMAHAWK       FAIR      35  18  50 N6        30.33R WCI  30
MEDFORD        FAIR      32  18  57 N5        30.32R WCI  27
MERRILL          N/A     35  19  53 N9        30.32S WCI  28
$$

WIZ029-030-035-036-043>047-191500-
CENTRAL WISCONSIN

CITY           SKY/WX    TMP DP  RH WIND       PRES   REMARKS
WAUSAU         FAIR      35  19  52 N10       30.30R WCI  27
MOSINEE        MOSUNNY   36  19  51 N9        30.32R WCI  29
MARSHFIELD     FAIR      35  18  49 N8        30.32R WCI  29
STEVENS POINT  FAIR      34  18  51 N9        30.32R WCI  27
WAUPACA        FAIR      39  18  41 NW7       30.31R WCI  34
WAUTOMA        FAIR      35  19  52 NW5       30.33R WCI  31
WISC RAPIDS    FAIR      36  17  46 NW6       30.34R WCI  31
CAMP DOUGLAS   MOSUNNY   32  27  80 NW5       30.36R WCI  27
$$

WIZ011>013-019>022-031-037>040-048>050-191500-
NORTHEAST WISCONSIN

CITY           SKY/WX    TMP DP  RH WIND       PRES   REMARKS
ANTIGO         FAIR      32  20  62 N10       30.30R WCI  24
SHAWANO        FAIR      41  18  38 N6        30.29S
OCONTO         FAIR      36  20  51 N6        30.29R WCI  31
STURGEON BAY   FAIR      34  22  61 N15       30.28R WCI  24
GREEN BAY      FAIR      37  21  52 NW7       30.29R WCI  32
MANITOWOC      FAIR      36  21  54 N14       30.28R WCI  27
APPLETON       SUNNY     34  16  47 N9        30.27R WCI  26
CLINTONVILLE   FAIR      33  17  51 NW6       30.30R WCI  28
OSHKOSH        FAIR      34  20  56 N9        30.30R WCI  27
$$

WIZ032>034-041-042-053>061-191500-
SOUTHWEST WISCONSIN

CITY           SKY/WX    TMP DP  RH WIND       PRES   REMARKS
LA CROSSE      FAIR      31  25  78 N6        30.40R WCI  25
SPARTA         FAIR      23  23  99 CALM      30.40R
VIROQUA        FAIR      31  23  72 NW3       30.36R
BOSCOBEL       FAIR      30  28  92 CALM      30.39R
PRAIRIE DU CHI FAIR      32  26  77 CALM      30.39R
PLATTEVILLE    FAIR      32  25  77 N9        30.36R WCI  24
$$

WIZ056-057-062-063-064-067-068-191500-
SOUTH CENTRAL WISCONSIN

CITY           SKY/WX    TMP DP  RH WIND       PRES   REMARKS
REEDSBURG      FAIR      29  24  82 CALM      30.35R
BARABOO/DELLS  FAIR      32  24  73 NW3       30.34S
LONE ROCK      FAIR      27  23  85 W7        30.38R WCI  19
MINERAL POINT  FAIR      34  27  75 N13       30.34R WCI  25
MADISON        FAIR      32  22  66 N9        30.33R WCI  24
MIDDLETON      FAIR      33  24  68 NW8       30.34R WCI  26
WATERTOWN      FAIR      30  22  73 NW8       30.31R WCI  22
MONROE         FAIR      34  23  64 N13       30.32R WCI  25
JANESVILLE     SUNNY     36  23  60 N8        30.32R WCI  29
$$

WIZ051-052-058>065-066-070>072-191500-
SOUTHEAST WISCONSIN

CITY           SKY/WX    TMP DP  RH WIND       PRES   REMARKS
MILWAUKEE      FAIR      37  24  59 N10G21    30.28R WCI  30
WAUKESHA       SUNNY     30  21  69 NW8       30.30R WCI  23
MILWAUKEE/TIMM SUNNY     36  21  55 NW10      30.29R WCI  28
RACINE         FAIR      37  25  61 N14       30.29R WCI  28
BURLINGTON     FAIR      34  23  64 N8        30.30R WCI  27
KENOSHA        FAIR      36  24  62 N8        30.28R WCI  30
FOND DU LAC    FAIR      33  18  53 NW7       30.30R WCI  27
SHEBOYGAN      FAIR      35  23  61 N10       30.27R WCI  27
WEST BEND      FAIR      32  25  74 NW7       30.28R WCI  26
JUNEAU         FAIR      30  20  66 NW5       30.32R WCI  25
$$

LSZ147-162-191500-
LAKE SUPERIOR

STATION/POSITION TIME  TEMP    WIND        PRES    WAVE
                       AIR SEA DIR/SP/G            HT/PER
                 (UTC) (F)     (DEG/KT/KT) (MB)    (FT/S)
DEVILS ISLAND    1400   36     250/  5/  7 1030.4R
SAXON HARBOR     1340   33      CALM  /  2 1028.8R
$$

LMZ867-665-643>646-191500-
LAKE MICHIGAN

STATION/POSITION TIME  TEMP    WIND        PRES    WAVE
                       AIR SEA DIR/SP/G            HT/PER
                 (UTC) (F)     (DEG/KT/KT) (MB)    (FT/S)
NORTHPORT PIER   1340   33                 1024.4R
KEWAUNEE LAKESHO 1342   35     340/  8/ 14 1024.1R
SHEBOYGAN LAKESH 1200   34     340/ 14/ 17 1024.0R
PORT WASHINGTON  1330   35     320/  7/ 11 1026.1R
MILWAUKEE LAKESH 1350   35     330/  9/ 11   N/A
KENOSHA   LAKESH 1400   36                 1025.4
$$

TC  - TEMPERATURE IN CELSIUS
VSB - VISIBILITY IN STATUTE MILES
WCI - WIND CHILL INDEX
HX  - HEAT INDEX




USA.gov is the U.S. government's official web portal to all federal, state and local government web resources and services.